period_start,C,m1,H,J0,J1,J2,J3,J4,J5,JA,JB,JC,JD,JJ,JK,JN,#
2014-06-12 00:03:52,0.00,0.03,0.00,23.87,27.65,30.32,9.62,39.63,1022.49,2036.99,3501.02,3315.00,3608.00,499.86,497.99,4.52,0000 0000 0000 0000 000000
2014-06-12 00:08:53,0.03,0.03,0.00,23.88,27.65,30.30,9.57,39.54,1022.48,2036.99,3500.63,3314.79,3607.80,499.79,497.94,4.56,0000 0000 0000 0000 000000
2014-06-12 00:13:54,0.05,0.04,0.00,23.88,27.65,30.31,9.57,39.58,1022.48,2036.99,3499.06,3314.01,3606.99,499.87,497.90,4.61,0000 0000 0000 0000 000000
2014-06-12 00:18:55,0.00,0.04,0.00,23.86,27.65,30.29,9.54,39.57,1022.48,2036.99,3498.98,3313.96,3606.69,500.02,498.29,4.65,0000 0000 0000 0000 000000
2014-06-12 00:23:56,0.01,0.04,0.00,23.88,27.65,30.30,9.56,39.56,1022.48,2036.99,3498.90,3313.82,3606.30,499.76,497.80,4.69,0000 0000 0000 0000 000000
2014-06-12 00:28:58,0.02,0.04,0.00,23.88,27.65,30.30,9.58,39.41,1022.48,2036.98,3498.37,3313.49,3606.06,499.68,498.09,4.73,0000 0000 0000 0000 000000
2014-06-12 00:33:59,0.01,0.04,0.00,23.88,27.65,30.28,9.63,39.42,1022.48,2036.99,3498.11,3313.20,3606.01,500.22,498.26,4.77,0000 0000 0000 0000 000000
2014-06-12 00:39:00,-0.00,0.04,0.00,23.88,27.65,30.29,9.65,39.68,1022.48,2036.99,3498.02,3313.09,3606.00,500.27,498.27,4.81,0000 0000 0000 0000 000000
2014-06-12 00:44:01,0.00,0.04,0.00,23.87,27.65,30.30,9.60,39.46,1022.48,2036.99,3498.02,3313.07,3606.00,499.78,498.01,4.86,0000 0000 0000 0000 000000
2014-06-12 00:49:02,0.00,0.04,0.00,23.85,27.65,30.29,9.63,39.42,1022.48,2036.99,3498.00,3313.04,3606.00,500.22,498.32,4.90,0000 0000 0000 0000 000000
2014-06-12 00:54:03,0.00,0.04,0.00,23.85,27.65,30.28,9.63,39.43,1022.49,2036.99,3497.99,3313.02,3605.99,500.30,498.46,4.94,0000 0000 0000 0000 000000
2014-06-12 00:59:04,0.00,0.04,0.00,23.88,27.65,30.29,9.59,39.40,1022.48,2036.99,3497.81,3313.00,3605.92,499.87,498.06,4.98,0000 0000 0000 0000 000000
2014-06-12 01:04:05,0.01,0.04,0.00,23.88,27.65,30.29,9.63,39.65,1022.48,2036.99,3497.16,3312.99,3605.68,499.97,498.02,5.02,0000 0000 0000 0000 000000
2014-06-12 01:09:06,0.01,0.04,0.00,23.87,27.65,30.28,9.60,39.60,1022.48,2036.99,3497.01,3312.97,3605.10,500.07,498.17,5.06,0000 0000 0000 0000 000000
2014-06-12 01:14:07,0.00,0.04,0.00,23.88,27.66,30.28,9.65,39.60,1022.49,2036.99,3497.00,3312.92,3605.01,499.88,497.88,5.11,0000 0000 0000 0000 000000
2014-06-12 01:19:08,0.01,0.04,0.00,23.92,27.66,30.28,9.56,39.60,1022.49,2036.99,3496.97,3312.59,3605.00,499.90,497.79,5.15,0000 0000 0000 0000 000000
2014-06-12 01:24:10,0.01,0.04,0.00,23.90,27.67,30.29,9.58,39.50,1022.49,2036.99,3496.83,3312.31,3605.00,499.80,497.92,5.19,0000 0000 0000 0000 000000
2014-06-12 01:29:11,0.01,0.04,0.00,23.92,27.67,30.27,9.62,39.55,1022.48,2036.99,3496.22,3312.05,3604.98,500.08,498.09,5.23,0000 0000 0000 0000 000000
2014-06-12 01:34:12,0.00,0.04,0.00,23.93,27.67,30.28,9.63,39.57,1022.48,2036.99,3496.05,3312.01,3604.77,500.19,498.25,5.27,0000 0000 0000 0000 000000
2014-06-12 01:39:13,0.01,0.04,0.00,23.94,27.67,30.28,9.59,39.38,1022.48,2036.99,3496.00,3312.00,3604.33,500.13,498.07,5.32,0000 0000 0000 0000 000000
2014-06-12 01:44:14,0.00,0.04,0.00,23.97,27.67,30.30,9.61,39.49,1022.48,2036.99,3495.98,3312.00,3604.07,500.00,497.87,5.36,0000 0000 0000 0000 000000
2014-06-12 01:49:15,0.01,0.04,0.00,23.95,27.67,30.30,9.65,39.48,1022.48,2036.99,3495.54,3311.98,3604.02,500.37,498.36,5.40,0000 0000 0000 0000 000000
2014-06-12 01:54:16,0.01,0.04,0.00,23.96,27.68,30.28,9.50,39.56,1022.48,2036.99,3495.05,3311.92,3604.00,499.87,497.87,5.44,0000 0000 0000 0000 000000
2014-06-12 01:59:17,0.01,0.04,0.00,23.97,27.68,30.27,9.62,39.59,1022.49,2036.99,3495.00,3311.60,3603.98,500.10,497.88,5.48,0000 0000 0000 0000 000000
2014-06-12 02:04:18,0.01,0.04,0.00,24.02,27.68,30.28,9.61,39.63,1022.48,2036.99,3494.98,3311.24,3603.90,500.07,497.97,5.52,0000 0000 0000 0000 000000
2014-06-12 02:09:20,0.00,0.04,0.00,24.02,27.68,30.29,9.57,39.41,1022.48,2036.99,3494.94,3311.14,3603.83,500.28,498.16,5.57,0000 0000 0000 0000 000000
2014-06-12 02:14:21,0.02,0.04,0.00,24.03,27.69,30.28,9.63,39.52,1022.48,2036.99,3494.46,3311.08,3603.66,499.99,497.85,5.61,0000 0000 0000 0000 000000
2014-06-12 02:19:22,0.01,0.05,0.00,24.06,27.68,30.27,9.57,39.62,1022.48,2036.99,3494.02,3311.00,3603.15,500.09,497.81,5.65,0000 0000 0000 0000 000000
2014-06-12 02:24:22,0.00,0.05,0.00,24.08,27.68,30.27,9.49,39.38,1022.48,2036.99,3494.00,3311.00,3603.05,499.64,497.42,5.69,0000 0000 0000 0000 000000
2014-06-12 02:29:24,0.00,0.05,0.00,24.09,27.68,30.28,9.61,39.48,1022.48,2036.99,3494.00,3311.00,3603.02,499.94,497.74,5.73,0000 0000 0000 0000 000000
2014-06-12 02:34:25,0.00,0.05,0.00,24.09,27.67,30.26,9.64,39.55,1022.48,2037.00,3493.92,3311.00,3603.00,500.02,497.90,5.78,0000 0000 0000 0000 000000
2014-06-12 02:39:26,0.00,0.05,0.00,24.10,27.67,30.27,9.54,39.37,1022.47,2037.01,3493.93,3311.00,3603.00,499.84,497.53,5.82,0000 0000 0000 0000 000000
2014-06-12 02:44:27,0.01,0.05,0.00,24.09,27.67,30.28,9.60,39.59,1022.45,2037.00,3493.70,3311.00,3603.00,500.00,497.74,5.86,0000 0000 0000 0000 000000
2014-06-12 02:49:28,0.01,0.05,0.00,24.09,27.67,30.28,9.57,39.55,1022.32,2037.01,3493.52,3310.98,3602.99,499.71,497.39,5.90,0000 0000 0000 0000 000000
2014-06-12 02:54:29,0.00,0.05,0.00,24.09,27.67,30.28,9.56,39.53,1022.10,2037.01,3493.20,3310.98,3602.99,500.02,497.54,5.94,0000 0000 0000 0000 000000
2014-06-12 02:59:30,0.00,0.05,0.00,24.11,27.67,30.31,9.63,39.42,1022.05,2037.01,3493.03,3310.97,3602.96,500.33,497.63,5.98,0000 0000 0000 0000 000000
2014-06-12 03:04:32,-0.00,0.05,0.00,24.11,27.67,30.29,9.63,39.44,1022.06,2037.01,3493.00,3310.95,3602.90,499.97,497.37,6.03,0000 0000 0000 0000 000000
2014-06-12 03:09:33,0.00,0.05,0.00,24.11,27.67,30.31,9.56,39.44,1022.03,2037.02,3492.99,3310.91,3602.63,499.68,497.04,6.07,0000 0000 0000 0000 000000
2014-06-12 03:14:34,0.00,0.05,0.00,24.12,27.67,30.28,9.59,39.23,1022.03,2037.01,3492.98,3310.87,3602.29,500.24,497.51,6.11,0000 0000 0000 0000 000000
2014-06-12 03:19:34,0.01,0.05,0.00,24.14,27.67,30.26,9.55,39.57,1022.02,2037.01,3492.96,3310.72,3602.11,499.91,497.41,6.15,0000 0000 0000 0000 000000
2014-06-12 03:24:35,-0.01,0.05,0.00,24.14,27.67,30.28,9.64,39.42,1022.00,2037.00,3492.93,3310.70,3602.02,499.90,497.42,6.19,0000 0000 0000 0000 000000
2014-06-12 03:29:36,0.04,0.05,0.00,24.15,27.67,30.31,9.65,39.47,1022.00,2037.02,3492.12,3310.11,3601.99,499.99,497.39,6.24,0000 0000 0000 0000 000000
2014-06-12 03:34:37,0.00,0.05,0.00,24.14,27.67,30.31,9.63,39.47,1021.99,2037.00,3491.97,3310.01,3601.95,500.40,497.79,6.28,0000 0000 0000 0000 000000
2014-06-12 03:39:38,0.00,0.05,0.00,24.13,27.67,30.30,9.53,39.38,1021.99,2037.02,3491.81,3310.00,3601.92,500.27,497.73,6.32,0000 0000 0000 0000 000000
2014-06-12 03:44:40,0.00,0.05,0.00,24.13,27.67,30.33,9.61,39.42,1021.99,2037.02,3491.40,3310.00,3601.92,500.07,497.62,6.36,0000 0000 0000 0000 000000
2014-06-12 03:49:41,0.01,0.05,0.00,24.12,27.67,30.33,9.60,39.23,1021.99,2037.05,3491.13,3310.00,3601.66,499.92,497.34,6.40,0000 0000 0000 0000 000000
2014-06-12 03:54:42,0.00,0.05,0.00,24.14,27.67,30.33,9.56,39.22,1021.99,2037.04,3491.03,3309.99,3601.25,500.10,497.35,6.44,0000 0000 0000 0000 000000
2014-06-12 03:59:43,-0.00,0.05,0.00,24.13,27.67,30.32,9.61,39.35,1021.99,2037.02,3490.99,3309.96,3601.02,500.01,497.40,6.49,0000 0000 0000 0000 000000
2014-06-12 04:04:44,-0.00,0.05,0.00,24.14,27.67,30.33,9.53,39.36,1021.97,2037.04,3490.98,3309.96,3601.00,499.57,497.06,6.53,0000 0000 0000 0000 000000
2014-06-12 04:09:45,0.01,0.05,0.00,24.13,27.67,30.30,9.60,39.35,1021.72,2037.01,3490.82,3309.64,3600.99,500.14,497.47,6.57,0000 0000 0000 0000 000000
2014-06-12 04:14:46,0.01,0.05,0.00,24.12,27.67,30.32,9.59,39.29,1021.56,2037.03,3490.43,3309.39,3600.99,499.95,497.18,6.61,0000 0000 0000 0000 000000
2014-06-12 04:19:47,0.01,0.05,0.00,24.12,27.67,30.35,9.56,39.39,1021.53,2037.02,3490.03,3309.07,3600.89,500.11,497.17,6.65,0000 0000 0000 0000 000000
2014-06-12 04:24:48,0.00,0.05,0.00,24.12,27.67,30.34,9.61,39.48,1021.51,2037.04,3490.00,3309.04,3600.87,500.07,497.27,6.70,0000 0000 0000 0000 000000
2014-06-12 04:29:49,0.00,0.05,0.00,24.12,27.67,30.32,9.58,39.21,1021.50,2037.05,3490.00,3309.02,3600.58,500.12,497.38,6.74,0000 0000 0000 0000 000000
2014-06-12 04:34:50,0.01,0.05,0.00,24.14,27.67,30.37,9.57,39.32,1021.51,2037.03,3489.98,3309.00,3600.09,500.23,497.14,6.78,0000 0000 0000 0000 000000
2014-06-12 04:39:50,0.00,0.05,0.00,24.12,27.67,30.38,9.58,39.54,1021.50,2037.03,3489.84,3309.00,3600.01,500.07,497.22,6.82,0000 0000 0000 0000 000000
2014-06-12 04:44:51,0.01,0.05,0.00,24.11,27.68,30.39,9.55,39.47,1021.50,2037.03,3489.44,3308.99,3600.00,499.79,497.00,6.86,0000 0000 0000 0000 000000
2014-06-12 04:49:52,0.00,0.05,0.00,24.09,27.69,30.39,9.59,39.46,1021.50,2037.03,3489.04,3308.95,3599.99,500.12,497.28,6.90,0000 0000 0000 0000 000000
2014-06-12 04:54:53,0.00,0.05,0.00,24.10,27.70,30.38,9.60,39.26,1021.50,2037.03,3489.02,3308.96,3599.98,500.18,497.49,6.95,0000 0000 0000 0000 000000
2014-06-12 04:59:54,0.01,0.05,0.00,24.11,27.70,30.37,9.60,39.42,1021.48,2037.05,3489.00,3308.79,3599.92,500.11,497.12,6.99,0000 0000 0000 0000 000000
2014-06-12 05:04:55,0.00,0.06,0.00,24.10,27.70,30.39,9.56,39.37,1021.40,2037.03,3488.98,3308.39,3599.63,499.84,496.97,7.03,0000 0000 0000 0000 000000
2014-06-12 05:09:56,0.02,0.06,0.00,24.03,27.70,30.44,9.60,39.30,1021.19,2037.04,3488.83,3308.14,3599.21,499.93,497.11,7.07,0000 0000 0000 0000 000000
2014-06-12 05:14:57,0.01,0.06,0.00,24.03,27.71,30.45,9.67,39.52,1021.04,2037.01,3488.15,3308.00,3599.01,500.31,497.58,7.11,0000 0000 0000 0000 000000
2014-06-12 05:19:58,0.00,0.06,0.00,24.06,27.72,30.43,9.42,39.17,1021.01,2037.00,3488.01,3308.00,3599.00,499.30,496.44,7.16,0000 0000 0000 0000 000000
2014-06-12 05:24:59,0.00,0.06,0.00,24.08,27.72,30.45,9.52,39.37,1021.01,2037.01,3488.00,3308.00,3599.00,499.80,496.89,7.20,0000 0000 0000 0000 000000
2014-06-12 05:30:00,0.00,0.06,0.00,24.07,27.72,30.44,9.58,39.35,1021.00,2037.01,3487.99,3307.98,3598.97,500.02,497.08,7.24,0000 0000 0000 0000 000000
2014-06-12 05:35:01,0.01,0.06,0.00,24.09,27.72,30.42,9.62,39.48,1020.94,2037.00,3487.84,3307.95,3598.77,499.96,496.70,7.28,0000 0000 0000 0000 000000
2014-06-12 05:40:02,0.03,0.06,0.00,24.12,27.73,30.42,9.57,39.27,1020.78,2037.00,3487.15,3307.51,3598.16,499.71,496.65,7.32,0000 0000 0000 0000 000000
2014-06-12 05:45:03,0.01,0.06,0.00,24.11,27.74,30.43,9.60,39.36,1020.56,2037.01,3487.02,3307.18,3598.02,500.14,497.03,7.36,0000 0000 0000 0000 000000
2014-06-12 05:50:05,0.00,0.06,0.00,24.02,27.75,30.46,9.65,39.35,1020.54,2037.00,3486.99,3307.03,3598.00,500.22,497.11,7.41,0000 0000 0000 0000 000000
2014-06-12 05:55:05,0.00,0.06,0.00,23.97,27.75,30.48,9.61,39.23,1020.54,2037.00,3486.84,3307.00,3597.98,500.12,497.09,7.45,0000 0000 0000 0000 000000
2014-06-12 06:00:06,0.01,0.06,0.00,23.96,27.75,30.52,9.56,39.24,1020.53,2037.00,3486.29,3307.00,3597.94,500.15,497.11,7.49,0000 0000 0000 0000 000000
2014-06-12 06:05:08,0.01,0.06,0.00,23.97,27.75,30.50,9.64,39.43,1020.52,2037.00,3486.03,3306.99,3597.63,500.04,497.02,7.53,0000 0000 0000 0000 000000
2014-06-12 06:10:09,0.00,0.06,0.00,24.00,27.75,30.48,9.60,39.27,1020.52,2037.00,3486.00,3306.95,3597.11,499.98,496.78,7.57,0000 0000 0000 0000 000000
2014-06-12 06:15:10,0.01,0.06,0.00,24.03,27.77,30.49,9.66,39.29,1020.47,2037.00,3485.98,3306.69,3597.02,500.51,497.25,7.62,0000 0000 0000 0000 000000
2014-06-12 06:20:12,0.00,0.06,0.00,23.99,27.77,30.47,9.64,39.21,1020.42,2037.00,3485.93,3306.32,3597.00,500.33,497.00,7.66,0000 0000 0000 0000 000000
2014-06-12 06:25:13,0.02,0.06,0.00,23.97,27.77,30.50,9.57,39.23,1020.32,2037.00,3485.53,3306.06,3597.00,499.90,496.77,7.70,0000 0000 0000 0000 000000
2014-06-12 06:30:14,0.01,0.06,0.00,23.98,27.78,30.54,9.62,39.30,1020.07,2037.00,3485.11,3306.01,3596.97,500.32,497.06,7.74,0000 0000 0000 0000 000000
2014-06-12 06:35:15,0.00,0.06,0.00,23.93,27.80,30.54,9.56,39.24,1020.06,2037.00,3485.03,3306.00,3596.75,499.95,496.86,7.78,0000 0000 0000 0000 000000
2014-06-12 06:40:16,0.01,0.06,0.00,23.88,27.80,30.55,9.54,39.27,1020.05,2037.00,3485.00,3305.99,3596.21,499.90,496.99,7.82,0000 0000 0000 0000 000000
2014-06-12 06:45:17,0.00,0.06,0.00,23.92,27.80,30.55,9.57,39.25,1020.05,2037.00,3484.94,3305.96,3596.01,500.35,497.25,7.87,0000 0000 0000 0000 000000
2014-06-12 06:50:18,0.01,0.06,0.00,23.95,27.82,30.53,9.58,39.42,1020.04,2037.00,3484.80,3305.88,3596.00,499.86,496.57,7.91,0000 0000 0000 0000 000000
2014-06-12 06:55:20,0.02,0.07,0.00,23.88,27.82,30.52,9.58,39.33,1020.04,2037.00,3484.31,3305.39,3596.00,500.17,496.96,7.95,0000 0000 0000 0000 000000
2014-06-12 07:00:20,0.01,0.07,0.00,23.88,27.82,30.55,9.54,39.45,1020.04,2037.00,3484.03,3305.09,3595.97,500.10,496.91,7.99,0000 0000 0000 0000 000000
2014-06-12 07:05:22,0.01,0.07,0.00,23.88,27.84,30.55,9.56,39.37,1020.01,2036.99,3483.99,3305.01,3595.43,499.93,496.69,8.03,0000 0000 0000 0000 000000
2014-06-12 07:10:22,0.00,0.07,0.00,23.81,27.85,30.55,9.56,39.45,1019.93,2036.99,3483.87,3305.00,3595.04,499.81,496.76,8.08,0000 0000 0000 0000 000000
2014-06-12 07:15:23,0.00,0.07,0.00,23.82,27.85,30.53,9.61,39.34,1019.85,2036.99,3483.82,3305.00,3595.03,500.08,496.92,8.12,0000 0000 0000 0000 000000
2014-06-12 07:20:25,0.01,0.07,0.00,23.83,27.85,30.52,9.64,39.32,1019.93,2036.99,3483.37,3304.97,3595.00,500.40,497.27,8.16,0000 0000 0000 0000 000000
2014-06-12 07:25:26,0.00,0.07,0.00,23.82,27.85,30.51,9.50,39.32,1019.76,2036.99,3483.02,3304.84,3594.98,500.19,497.01,8.20,0000 0000 0000 0000 000000
2014-06-12 07:30:27,0.01,0.07,0.00,23.84,27.85,30.49,9.61,39.34,1019.57,2036.98,3483.00,3304.59,3594.97,499.71,496.56,8.24,0000 0000 0000 0000 000000
2014-06-12 07:35:28,0.01,0.07,0.00,23.87,27.85,30.50,9.58,39.24,1019.57,2036.98,3482.98,3304.11,3594.71,499.85,496.57,8.28,0000 0000 0000 0000 000000
2014-06-12 07:40:29,0.02,0.07,0.00,23.86,27.85,30.49,9.71,39.30,1019.55,2036.97,3482.46,3304.01,3594.13,500.45,497.08,8.33,0000 0000 0000 0000 000000
2014-06-12 07:45:30,0.00,0.07,0.00,23.77,27.85,30.50,9.66,39.23,1019.55,2036.98,3482.07,3304.00,3594.03,500.08,496.99,8.37,0000 0000 0000 0000 000000
2014-06-12 07:50:32,-0.00,0.07,0.00,23.50,27.85,30.53,9.61,39.38,1019.55,2036.96,3482.00,3304.00,3594.00,500.31,497.51,8.41,0000 0000 0000 0000 000000
2014-06-12 07:55:33,0.01,0.07,0.00,23.27,27.85,30.57,9.63,39.41,1019.55,2036.93,3481.83,3303.96,3593.98,499.93,497.61,8.45,0000 0000 0000 0000 000000
2014-06-12 08:00:34,0.00,0.07,0.00,23.15,27.83,30.53,9.60,39.33,1019.53,2036.98,3481.79,3303.97,3593.98,499.92,497.72,8.49,0000 0000 0000 0000 000000
2014-06-12 08:05:35,0.00,0.07,0.00,23.07,27.81,30.50,9.57,39.33,1019.38,2036.99,3481.68,3303.99,3593.98,499.90,497.69,8.54,0000 0000 0000 0000 000000
2014-06-12 08:10:36,0.00,0.07,0.00,23.04,27.78,30.43,9.78,39.33,1019.12,2036.99,3481.32,3303.98,3593.98,500.91,498.79,8.58,0000 0000 0000 0000 000000
2014-06-12 08:15:37,-0.00,0.07,0.00,23.22,27.76,30.34,9.68,39.28,1019.10,2036.99,3481.37,3303.99,3593.98,499.73,497.21,8.62,0000 0000 0000 0000 000000
2014-06-12 08:20:38,-0.00,0.07,0.00,23.50,27.73,30.26,9.56,39.21,1019.10,2036.99,3481.63,3303.99,3593.99,499.86,496.86,8.66,0000 0000 0000 0000 000000
2014-06-12 08:25:40,-0.00,0.07,0.00,23.73,27.72,30.21,9.59,39.17,1019.10,2037.00,3481.88,3303.99,3593.99,500.23,496.96,8.70,0000 0000 0000 0000 000000
2014-06-12 08:30:41,0.00,0.07,0.00,23.96,27.71,30.20,9.63,39.21,1019.09,2037.02,3481.93,3303.99,3593.99,500.45,496.65,8.74,0000 0000 0000 0000 000000
2014-06-12 08:35:42,0.01,0.07,0.00,24.04,27.70,30.19,9.72,39.23,1019.09,2037.02,3481.33,3303.99,3593.98,500.26,496.45,8.79,0000 0000 0000 0000 000000
2014-06-12 08:40:43,0.00,0.07,0.00,23.97,27.70,30.20,9.60,39.12,1019.10,2037.01,3481.01,3303.98,3593.95,500.04,496.27,8.83,0000 0000 0000 0000 000000
2014-06-12 08:45:44,0.00,0.07,0.00,23.74,27.70,30.19,9.62,39.13,1019.07,2037.02,3481.00,3303.98,3593.92,500.28,496.96,8.87,0000 0000 0000 0000 000000
2014-06-12 08:50:46,-0.00,0.07,0.00,23.50,27.68,30.27,9.68,39.01,1019.07,2037.04,3481.00,3303.98,3593.93,500.65,497.75,8.91,0000 0000 0000 0000 000000
2014-06-12 08:55:47,0.01,0.07,0.00,23.36,27.67,30.35,9.67,39.09,1019.07,2037.05,3480.98,3303.96,3593.72,500.55,497.70,8.95,0000 0000 0000 0000 000000
2014-06-12 09:00:48,0.05,0.07,0.00,23.29,27.66,30.37,9.65,39.12,1019.07,2037.08,3480.33,3303.46,3593.17,500.21,497.52,9.00,0000 0000 0000 0000 000000
2014-06-12 09:05:50,0.02,0.07,0.00,23.25,27.65,30.36,9.69,39.20,1019.06,2037.19,3480.01,3303.09,3593.01,500.18,497.74,9.04,0000 0000 0000 0000 000000
2014-06-12 09:10:50,0.02,0.08,0.00,23.21,27.63,30.33,9.67,39.10,1019.06,2037.48,3480.01,3303.07,3593.01,500.13,497.69,9.08,0000 0000 0000 0000 000000
2014-06-12 09:15:52,0.03,0.08,0.00,23.17,27.62,30.29,9.62,39.07,1019.01,2037.75,3480.00,3303.20,3593.01,500.25,497.89,9.12,0000 0000 0000 0000 000000
2014-06-12 09:20:53,0.01,0.08,0.00,23.16,27.60,30.26,9.53,39.02,1018.79,2037.92,3479.91,3303.07,3593.00,499.41,496.94,9.16,0000 0000 0000 0000 000000
2014-06-12 09:25:54,0.01,0.08,0.00,23.14,27.57,30.22,9.60,38.93,1018.81,2037.98,3479.66,3303.03,3593.00,500.03,497.60,9.20,0000 0000 0000 0000 000000
2014-06-12 09:30:55,0.00,0.08,0.00,23.24,27.55,30.15,9.66,38.95,1018.94,2037.99,3479.49,3303.02,3593.00,500.13,497.62,9.25,0000 0000 0000 0000 000000
2014-06-12 09:35:56,0.00,0.08,0.00,23.53,27.53,30.09,9.50,39.00,1018.88,2037.99,3479.35,3303.03,3592.99,499.63,496.44,9.29,0000 0000 0000 0000 000000
2014-06-12 09:40:57,0.00,0.08,0.00,23.76,27.52,30.07,9.59,38.91,1018.93,2037.99,3479.02,3303.00,3592.96,499.68,496.24,9.33,0000 0000 0000 0000 000000
2014-06-12 09:45:59,0.00,0.08,0.00,23.88,27.52,30.05,9.45,38.98,1018.87,2037.99,3479.00,3303.00,3592.92,499.78,496.18,9.37,0000 0000 0000 0000 000000
2014-06-12 09:51:00,0.01,0.08,0.00,23.91,27.52,30.00,9.61,39.08,1018.74,2037.99,3478.98,3302.99,3592.49,500.44,496.71,9.41,0000 0000 0000 0000 000000
2014-06-12 09:56:01,0.02,0.08,0.00,23.79,27.52,29.97,9.55,39.08,1018.67,2037.99,3478.60,3302.90,3592.10,500.22,496.44,9.46,0000 0000 0000 0000 000000
2014-06-12 10:01:02,0.02,0.08,0.00,23.53,27.52,29.99,9.55,39.12,1018.61,2037.99,3478.04,3302.47,3592.00,500.11,496.96,9.50,0000 0000 0000 0000 000000
2014-06-12 10:06:03,0.01,0.08,0.00,23.37,27.52,30.05,9.39,39.11,1018.63,2037.99,3478.00,3302.10,3592.00,499.46,496.52,9.54,0000 0000 0000 0000 000000
2014-06-12 10:11:03,0.00,0.08,0.00,23.28,27.52,30.15,9.63,39.13,1018.58,2037.99,3478.00,3302.06,3591.99,499.99,497.19,9.58,0000 0000 0000 0000 000000
2014-06-12 10:16:04,0.00,0.08,0.00,23.22,27.52,30.19,9.49,39.15,1018.56,2038.00,3477.98,3302.08,3591.99,499.86,497.09,9.62,0000 0000 0000 0000 000000
2014-06-12 10:21:05,0.00,0.08,0.00,23.20,27.52,30.14,9.60,39.23,1018.53,2038.00,3477.96,3302.04,3591.97,500.22,497.44,9.66,0000 0000 0000 0000 000000
2014-06-12 10:26:06,0.01,0.08,0.00,23.21,27.50,30.02,9.54,39.14,1018.54,2038.02,3477.73,3302.03,3591.95,499.81,497.11,9.71,0000 0000 0000 0000 000000
2014-06-12 10:31:07,0.01,0.08,0.00,23.21,27.50,29.94,9.54,39.07,1018.57,2038.01,3477.14,3302.00,3591.67,499.81,497.04,9.75,0000 0000 0000 0000 000000
2014-06-12 10:36:08,0.01,0.08,0.00,23.20,27.49,29.94,9.52,39.15,1018.57,2038.04,3477.01,3302.00,3591.49,500.17,497.50,9.79,0000 0000 0000 0000 000000
2014-06-12 10:41:10,0.00,0.08,0.00,23.17,27.47,29.96,9.53,39.14,1018.37,2038.05,3477.00,3302.00,3591.16,499.55,497.05,9.83,0000 0000 0000 0000 000000
2014-06-12 10:46:11,-0.00,0.08,0.00,23.16,27.47,29.97,9.57,39.18,1018.11,2038.05,3476.99,3301.99,3591.02,499.72,496.73,9.87,0000 0000 0000 0000 000000
2014-06-12 10:51:12,0.00,0.08,0.00,23.15,27.45,29.99,9.66,39.28,1018.12,2038.05,3476.97,3301.99,3591.00,500.21,497.28,9.92,0000 0000 0000 0000 000000
2014-06-12 10:56:13,0.02,0.08,0.00,23.38,27.44,30.04,9.52,39.00,1018.13,2038.17,3476.99,3301.99,3591.01,499.75,496.56,9.96,0000 0000 0000 0000 000000
2014-06-12 11:01:14,0.01,0.08,0.00,23.65,27.43,30.00,9.59,39.17,1018.09,2038.21,3476.95,3301.99,3591.00,500.02,496.30,10.00,0000 0000 0000 0000 000000
2014-06-12 11:06:15,0.00,0.08,0.00,23.62,27.43,29.94,9.62,39.13,1018.08,2038.21,3476.60,3301.97,3591.00,500.04,496.41,10.04,0000 0000 0000 0000 000000
2014-06-12 11:11:16,0.00,0.09,0.00,23.43,27.42,30.01,9.49,39.07,1018.08,2038.16,3476.07,3301.71,3590.99,499.74,496.37,10.08,0000 0000 0000 0000 000000
2014-06-12 11:16:17,0.03,0.09,0.00,23.37,27.42,30.07,9.57,39.05,1018.08,2038.18,3476.00,3301.23,3590.97,499.84,496.52,10.12,0000 0000 0000 0000 000000
2014-06-12 11:21:19,0.05,0.09,0.00,23.28,27.41,30.03,9.51,39.08,1018.08,2038.55,3475.99,3301.24,3590.94,499.77,496.69,10.17,0000 0000 0000 0000 000000
2014-06-12 11:26:20,0.02,0.09,0.00,23.27,27.40,29.99,9.58,39.12,1018.08,2038.76,3475.90,3301.10,3590.85,499.86,496.94,10.21,0000 0000 0000 0000 000000
2014-06-12 11:31:21,0.02,0.09,0.00,23.07,27.40,29.98,9.61,39.22,1017.97,2038.90,3475.61,3301.06,3590.53,499.65,496.85,10.25,0000 0000 0000 0000 000000
2014-06-12 11:36:22,0.00,0.09,0.00,23.04,27.40,29.97,9.65,39.40,1017.71,2038.82,3475.10,3301.00,3590.10,499.85,497.04,10.29,0000 0000 0000 0000 000000
2014-06-12 11:41:23,-0.06,0.09,0.00,23.10,27.41,30.05,9.57,39.33,1017.65,2038.38,3475.01,3300.99,3590.01,499.83,496.88,10.33,0000 0000 0000 0000 000000
2014-06-12 11:46:24,0.01,0.09,0.00,23.22,27.44,30.12,9.59,39.50,1017.61,2038.22,3474.99,3300.92,3589.99,500.01,496.84,10.38,0000 0000 0000 0000 000000
2014-06-12 11:51:25,0.02,0.09,0.00,23.39,27.47,30.15,9.50,39.32,1017.62,2038.09,3474.84,3300.37,3589.60,500.06,496.49,10.42,0000 0000 0000 0000 000000
2014-06-12 11:56:26,0.02,0.09,0.00,23.86,27.52,30.22,9.60,39.25,1017.65,2038.03,3474.14,3300.01,3589.02,500.35,496.00,10.46,0000 0000 0000 0000 000000
2014-06-12 12:01:28,0.00,0.09,0.00,24.22,27.57,30.09,9.45,39.16,1017.73,2038.00,3473.99,3299.94,3588.90,500.31,495.50,10.50,0000 0000 0000 0000 000000
2014-06-12 12:06:29,0.05,0.09,0.00,24.11,27.62,30.11,9.55,39.32,1017.64,2038.00,3473.41,3299.16,3588.13,500.13,495.24,10.54,0000 0000 0000 0000 000000
2014-06-12 12:11:30,-0.00,0.09,0.00,23.90,27.67,30.20,9.54,39.22,1017.60,2037.95,3472.98,3298.97,3587.91,500.15,495.76,10.58,0000 0000 0000 0000 000000
2014-06-12 12:16:31,-0.00,0.09,0.00,23.76,27.72,30.30,9.48,39.20,1017.60,2037.52,3472.31,3298.36,3587.11,499.77,495.62,10.63,0000 0000 0000 0000 000000
2014-06-12 12:21:33,-0.02,0.09,0.00,23.68,27.76,30.39,9.51,39.13,1017.59,2037.16,3472.00,3298.01,3586.99,499.36,495.36,10.67,0000 0000 0000 0000 000000
2014-06-12 12:26:33,-0.00,0.09,0.00,23.61,27.80,30.51,9.52,39.18,1017.59,2037.05,3471.80,3298.00,3586.81,499.91,496.04,10.71,0000 0000 0000 0000 000000
2014-06-12 12:31:35,0.03,0.09,0.00,23.56,27.82,30.59,9.57,39.26,1017.59,2037.00,3471.08,3297.75,3586.11,499.89,496.15,10.75,0000 0000 0000 0000 000000
2014-06-12 12:36:35,0.01,0.09,0.00,23.50,27.84,30.72,9.49,39.30,1017.56,2037.01,3471.00,3297.30,3586.00,500.10,496.34,10.79,0000 0000 0000 0000 000000
2014-06-12 12:41:37,0.00,0.09,0.00,23.46,27.85,30.74,9.60,39.28,1017.48,2037.00,3470.92,3297.01,3585.98,500.00,496.52,10.84,0000 0000 0000 0000 000000
2014-06-12 12:46:38,0.01,0.09,0.00,23.42,27.85,30.71,9.56,39.23,1017.44,2037.00,3470.46,3297.00,3585.84,500.08,496.44,10.88,0000 0000 0000 0000 000000
2014-06-12 12:51:39,0.01,0.09,0.00,23.38,27.85,30.69,9.61,39.27,1017.29,2037.00,3470.04,3297.00,3585.43,500.23,496.46,10.92,0000 0000 0000 0000 000000
2014-06-12 12:56:41,0.00,0.09,0.00,23.33,27.85,30.66,9.55,39.32,1017.16,2037.00,3470.00,3296.99,3585.07,500.07,496.61,10.96,0000 0000 0000 0000 000000
2014-06-12 13:01:42,0.00,0.09,0.00,23.30,27.84,30.59,9.63,39.43,1017.14,2037.00,3469.99,3296.97,3585.02,500.23,496.77,11.00,0000 0000 0000 0000 000000
2014-06-12 13:06:43,0.00,0.10,0.00,23.26,27.82,30.56,9.54,39.36,1017.13,2037.00,3469.90,3296.89,3585.00,499.91,496.41,11.04,0000 0000 0000 0000 000000